Weather History for KC09 - February, 2012

Change the Weather History Date:

Friday, February 10, 2012

  Actual Average (KLOT) Record (KLOT)
Temperature  
Mean Temperature 26 °F 26 °F  
Max Temperature 34 °F 34 °F 62 °F (2009)
Min Temperature 18 °F 18 °F -13 °F (2014)
Degree Days  
Heating Degree Days 39 39  
Month to date heating degree days 401  
Since 1 July heating degree days 4082  
Cooling Degree Days 0 0  
Month to date cooling degree days 0  
Year to date cooling degree days 0  
Moisture  
Dew Point 26 °F    
Average Humidity 84    
Maximum Humidity 95    
Minimum Humidity 78    
Precipitation  
Precipitation 0.00 in 0.06 in 0.35 in (2013)
Month to date precipitation 0.55  
Year to date precipitation 2.48  
Snow  
Snow 0.00 in 0.20 in 1.20 in (2012)
Month to date snowfall 2.5  
Since 1 July snowfall 23.5  
Snow Depth -    
Sea Level Pressure  
Sea Level Pressure 29.97 in    
Wind  
Wind Speed 12 mph (WSW)    
Max Wind Speed 20 mph    
Max Gust Speed 25 mph    
Visibility 7 miles    
Events Snow    
T = Trace of Precipitation, MM = Missing Value Source: NWS Daily Summary

Daily Weather History Graph

Daily Weather History Graph

Search for Another Location

Airport or City:

Trip Planner

Search our weather history database for the weather conditions in past years. The results will help you decide how hot, cold, wet, or windy it might be!

Date:

Astronomy

Feb. 10, 2012 Rise Set
Actual Time 6:55 AM CST 5:20 PM CST
Civil Twilight 6:27 AM CST 5:49 PM CST
Nautical Twilight 5:54 AM CST 6:22 PM CST
Astronomical Twilight 5:22 AM CST 6:54 PM CST
Moon 9:02 PM CST (2/10) 8:01 AM CST (2/10)
Length of Visible Light 11h 22m
Length of Day
10h 24m
Waning Gibbous, 90% of the Moon is Illuminated
Feb 10
Waning Gibbous
Feb 14
Last Quarter
Feb 21
New
Feb 29
First Quarter
Mar 8
Full

Hourly Weather History & Observations

Time (CST) Temp. Windchill Dew Point Humidity Pressure Visibility Wind Dir Wind Speed Gust Speed Precip Events Conditions
12:15 AM 30.9 °F 22.8 °F 25.2 °F 79% 30.08 in 10.0 mi SW 9.2 mph - N/A   Overcast
12:35 AM 31.1 °F 22.4 °F 25.2 °F 79% 30.07 in 10.0 mi SSW 10.4 mph - N/A   Overcast
12:55 AM 31.1 °F 21.9 °F 25.3 °F 79% 30.06 in 10.0 mi SSW 11.5 mph - N/A   Overcast
1:15 AM 31.5 °F 22.3 °F 25.3 °F 78% 30.05 in 10.0 mi SSW 11.5 mph - N/A   Overcast
1:35 AM 31.3 °F 22.1 °F 25.5 °F 79% 30.04 in 10.0 mi SSW 11.5 mph - N/A   Overcast
1:55 AM 31.5 °F 22.9 °F 25.5 °F 79% 30.03 in 10.0 mi SSW 10.4 mph - N/A   Overcast
2:15 AM 31.6 °F 23.1 °F 25.5 °F 78% 30.03 in 10.0 mi SSW 10.4 mph - N/A   Overcast
2:35 AM 31.8 °F 22.3 °F 25.7 °F 78% 30.02 in 10.0 mi SSW 12.7 mph - N/A   Overcast
2:55 AM 32.0 °F 22.5 °F 25.7 °F 78% 30.01 in 10.0 mi SSW 12.7 mph - N/A   Overcast
3:15 AM 32.0 °F 22.5 °F 25.7 °F 78% 30.00 in 10.0 mi SSW 12.7 mph 18.4 mph N/A   Overcast
3:35 AM 32.0 °F 23.0 °F 26.1 °F 79% 30.00 in 10.0 mi SSW 11.5 mph - N/A   Overcast
3:55 AM 32.0 °F 23.0 °F 26.4 °F 80% 29.99 in 10.0 mi SSW 11.5 mph - N/A   Overcast
4:15 AM 32.0 °F 23.0 °F 26.6 °F 80% 29.98 in 10.0 mi SSW 11.5 mph - N/A   Overcast
4:35 AM 32.0 °F 23.6 °F 26.6 °F 80% 29.98 in 10.0 mi SSW 10.4 mph - N/A   Overcast
4:55 AM 32.0 °F 23.0 °F 27.0 °F 82% 29.97 in 10.0 mi SW 11.5 mph - N/A   Overcast
5:15 AM 32.0 °F 23.0 °F 27.3 °F 83% 29.97 in 10.0 mi SSW 11.5 mph - N/A   Overcast
5:35 AM 32.0 °F 23.0 °F 27.5 °F 83% 29.97 in 10.0 mi SSW 11.5 mph - N/A   Overcast
5:55 AM 32.0 °F 21.6 °F 27.5 °F 83% 29.96 in 10.0 mi SSW 15.0 mph - N/A   Overcast
6:15 AM 32.0 °F 21.2 °F 27.7 °F 84% 29.96 in 10.0 mi SSW 16.1 mph 20.7 mph N/A   Overcast
6:35 AM 32.0 °F 22.1 °F 27.9 °F 85% 29.96 in 10.0 mi SW 13.8 mph - N/A   Overcast
6:55 AM 32.0 °F 22.1 °F 27.9 °F 85% 29.96 in 10.0 mi SW 13.8 mph - N/A   Overcast
7:15 AM 32.0 °F 22.5 °F 28.2 °F 86% 29.96 in 10.0 mi SSW 12.7 mph - N/A   Overcast
7:35 AM 32.0 °F 22.5 °F 28.4 °F 87% 29.96 in 7.0 mi SSW 12.7 mph - N/A   Overcast
7:55 AM 32.0 °F 22.5 °F 28.4 °F 87% 29.96 in 7.0 mi SSW 12.7 mph - N/A   Overcast
8:15 AM 32.4 °F 22.5 °F 28.8 °F 87% 29.96 in 7.0 mi SW 13.8 mph - N/A   Overcast
8:35 AM 32.5 °F 23.7 °F 28.9 °F 87% 29.96 in 7.0 mi SW 11.5 mph - N/A   Overcast
8:55 AM 32.9 °F 23.7 °F 29.3 °F 87% 29.96 in 7.0 mi SW 12.7 mph - N/A   Overcast
9:15 AM 32.9 °F 24.7 °F 29.3 °F 87% 29.95 in 7.0 mi SW 10.4 mph - N/A   Overcast
9:35 AM 33.8 °F 25.3 °F 29.8 °F 85% 29.95 in 7.0 mi SW 11.5 mph - N/A   Overcast
9:55 AM 34.0 °F 26.6 °F 29.3 °F 83% 29.94 in 7.0 mi WSW 9.2 mph - N/A   Overcast
10:15 AM 34.0 °F 25.5 °F 29.5 °F 84% 29.94 in 7.0 mi WSW 11.5 mph - N/A   Overcast
10:35 AM 34.0 °F 26.0 °F 29.8 °F 85% 29.93 in 7.0 mi WSW 10.4 mph - N/A   Overcast
10:55 AM 33.8 °F 24.8 °F 29.7 °F 85% 29.93 in 7.0 mi WSW 12.7 mph - N/A   Overcast
11:15 AM 34.2 °F 25.2 °F 30.0 °F 85% 29.92 in 7.0 mi WSW 12.7 mph - N/A   Overcast
11:35 AM 34.3 °F 25.9 °F 30.2 °F 85% 29.91 in 5.0 mi WSW 11.5 mph - N/A Snow Light Snow
11:55 AM 34.0 °F 26.0 °F 30.7 °F 88% 29.90 in 3.0 mi WSW 10.4 mph - N/A Snow Light Snow
12:15 PM 33.4 °F 25.9 °F 30.7 °F 90% 29.90 in 3.0 mi West 9.2 mph - N/A Snow Light Snow
12:35 PM 32.4 °F 20.6 °F 30.0 °F 91% 29.90 in 1.5 mi WNW 19.6 mph - N/A Snow Light Snow
12:55 PM 31.8 °F 21.0 °F 29.7 °F 92% 29.90 in 0.8 mi WNW 16.1 mph - N/A Snow Light Snow
1:15 PM 32.0 °F 22.1 °F 30.2 °F 93% 29.90 in 1.2 mi WNW 13.8 mph - N/A Snow Light Snow
1:35 PM 31.8 °F 22.8 °F 30.6 °F 95% 29.89 in 1.0 mi West 11.5 mph - N/A Snow Light Snow
1:55 PM 31.8 °F 19.9 °F 30.4 °F 94% 29.90 in 1.2 mi WNW 19.6 mph - N/A Snow Light Snow
2:15 PM 30.2 °F 19.8 °F 27.9 °F 91% 29.91 in 1.0 mi NW 13.8 mph 20.7 mph N/A Snow Light Snow
2:35 PM 28.9 °F 19.2 °F 25.7 °F 88% 29.92 in 1.8 mi NNW 11.5 mph 21.9 mph N/A Snow Light Snow
2:55 PM 28.4 °F 17.5 °F 24.1 °F 84% 29.93 in 10.0 mi NW 13.8 mph 21.9 mph N/A   Overcast
3:15 PM 27.5 °F 17.4 °F 23.9 °F 86% 29.94 in 10.0 mi NNW 11.5 mph 18.4 mph N/A   Overcast
3:35 PM 28.4 °F 17.5 °F 24.8 °F 86% 29.95 in 1.2 mi North 13.8 mph 21.9 mph N/A Snow Light Snow
3:55 PM 25.3 °F 12.2 °F 21.7 °F 86% 29.97 in 1.0 mi North 17.3 mph 25.3 mph N/A Snow Light Snow
4:15 PM 23.4 °F 11.1 °F 19.2 °F 84% 29.99 in 2.0 mi North 13.8 mph 23.0 mph N/A Snow Light Snow
4:35 PM 22.3 °F 10.8 °F 18.1 °F 84% 30.01 in 3.0 mi North 11.5 mph 21.9 mph N/A Snow Light Snow
4:55 PM 21.2 °F 8.3 °F 16.7 °F 83% 30.02 in 1.8 mi North 13.8 mph 23.0 mph N/A Snow Light Snow
5:15 PM 20.5 °F 7.4 °F 15.8 °F 82% 30.04 in 1.8 mi North 13.8 mph 25.3 mph N/A Snow Light Snow
5:35 PM 19.4 °F 7.2 °F 14.9 °F 83% 30.06 in 5.0 mi North 11.5 mph 21.9 mph N/A Snow Light Snow
5:55 PM 18.5 °F 4.3 °F 13.8 °F 82% 30.06 in 5.0 mi North 15.0 mph 23.0 mph N/A Snow Light Snow
6:15 PM 18.1 °F 5.6 °F 13.6 °F 83% 30.08 in 5.0 mi NNW 11.5 mph 23.0 mph N/A Snow Light Snow
6:35 PM 17.1 °F 3.0 °F 12.6 °F 82% 30.09 in 2.5 mi North 13.8 mph 24.2 mph N/A Snow Light Snow
6:55 PM 17.1 °F 3.0 °F 11.7 °F 79% 30.10 in 10.0 mi North 13.8 mph 24.2 mph N/A   Overcast
7:15 PM 16.5 °F 1.3 °F 11.1 °F 79% 30.11 in 7.0 mi North 16.1 mph 23.0 mph N/A   Overcast
7:35 PM 15.8 °F 0.3 °F 10.0 °F 78% 30.12 in 10.0 mi North 16.1 mph 24.2 mph N/A   Overcast
7:55 PM 15.4 °F -1.1 °F 9.3 °F 77% 30.13 in 10.0 mi North 18.4 mph 26.5 mph N/A Snow Light Snow
8:15 PM 15.4 °F 0.4 °F 7.5 °F 71% 30.14 in 10.0 mi North 15.0 mph 26.5 mph N/A   Overcast
8:35 PM 15.6 °F -0.9 °F 6.8 °F 68% 30.14 in 10.0 mi North 18.4 mph 31.1 mph N/A   Overcast
8:55 PM 15.8 °F 1.4 °F 6.6 °F 67% 30.15 in 10.0 mi NNW 13.8 mph 27.6 mph N/A   Overcast
9:15 PM 15.8 °F 0.9 °F 6.3 °F 66% 30.16 in 10.0 mi North 15.0 mph 25.3 mph N/A   Overcast
9:35 PM 15.8 °F 0.9 °F 6.1 °F 66% 30.16 in 10.0 mi NNW 15.0 mph 26.5 mph N/A   Overcast
9:55 PM 15.8 °F 0.9 °F 5.7 °F 64% 30.18 in 10.0 mi NNW 15.0 mph 24.2 mph N/A   Overcast
10:15 PM 15.8 °F 0.9 °F 5.0 °F 62% 30.18 in 10.0 mi NNW 15.0 mph 24.2 mph N/A   Overcast
10:35 PM 15.8 °F -0.2 °F 4.5 °F 61% 30.19 in 10.0 mi NNW 17.3 mph 24.2 mph N/A   Overcast
10:55 PM 15.4 °F 0.4 °F 4.5 °F 62% 30.20 in 10.0 mi NNW 15.0 mph 24.2 mph N/A   Overcast
11:15 PM 14.9 °F -1.8 °F 4.5 °F 63% 30.20 in 10.0 mi NNW 18.4 mph 23.0 mph N/A   Overcast
11:35 PM 14.2 °F -1.7 °F 4.3 °F 65% 30.21 in 10.0 mi NNW 16.1 mph 20.7 mph N/A   Mostly Cloudy
11:55 PM 13.1 °F -2.0 °F 3.9 °F 67% 30.22 in 10.0 mi NNW 13.8 mph 20.7 mph N/A   Scattered Clouds